This is the latest recevied weather packets stored in our database for station/object SV9TNF-54. If no packets are shown the sender has not sent any weather packets the latest 10 day(s).
| Time | Temp. | Humidity | Pressure | Rain* | Wind** | Luminosity | Snow |
|---|---|---|---|---|---|---|---|
| 1788571949 | 26.67° C | 53% | 1014.9 hPa | 0 mm | 6.26 m/s, 347° | - | - |
| 1788571649 | 26.67° C | 53% | 1014.9 hPa | 0 mm | 6.26 m/s, 347° | - | - |
| 1788571350 | 26.67° C | 53% | 1014.9 hPa | 0 mm | 6.26 m/s, 347° | - | - |
| 1788571049 | 26.67° C | 53% | 1014.9 hPa | 0 mm | 6.26 m/s, 347° | - | - |
| 1788570749 | 27.22° C | 51% | 1014.9 hPa | 0 mm | 9.83 m/s, 11° | - | - |
| 1788570449 | 27.22° C | 51% | 1014.9 hPa | 0 mm | 9.83 m/s, 11° | - | - |
| 1788570149 | 27.22° C | 51% | 1014.9 hPa | 0 mm | 9.83 m/s, 11° | - | - |
| 1788569849 | 27.22° C | 51% | 1014.9 hPa | 0 mm | 17.88 m/s, 9° | - | - |
| 1788569549 | 27.22° C | 51% | 1014.9 hPa | 0 mm | 17.88 m/s, 9° | - | - |
| 1788569250 | 27.22° C | 51% | 1014.9 hPa | 0 mm | 17.88 m/s, 9° | - | - |
| 1788568948 | 27.22° C | 53% | 1014.9 hPa | 0 mm | 14.31 m/s, 6° | - | - |
| 1788568648 | 27.22° C | 53% | 1014.9 hPa | 0 mm | 14.31 m/s, 6° | - | - |
| 1788568349 | 27.22° C | 53% | 1014.9 hPa | 0 mm | 14.31 m/s, 6° | - | - |
| 1788568048 | 26.67° C | 52% | 1014.9 hPa | 0 mm | 9.83 m/s, 349° | - | - |
| 1788567748 | 26.67° C | 52% | 1014.9 hPa | 0 mm | 9.83 m/s, 349° | - | - |
| 1788567448 | 26.67° C | 52% | 1014.9 hPa | 0 mm | 9.83 m/s, 349° | - | - |
| 1788567148 | 26.67° C | 52% | 1014.9 hPa | 0 mm | 9.83 m/s, 349° | - | - |
| 1788566848 | 26.67° C | 52% | 1014.9 hPa | 0 mm | 9.83 m/s, 349° | - | - |
| 1788566548 | 26.67° C | 52% | 1014.9 hPa | 0 mm | 9.83 m/s, 349° | - | - |
| 1788566248 | 26.67° C | 52% | 1015.2 hPa | 0 mm | 14.31 m/s, 8° | - | - |
| 1788565948 | 26.67° C | 52% | 1015.2 hPa | 0 mm | 14.31 m/s, 8° | - | - |
| 1788565674 | 26.67° C | 52% | 1015.2 hPa | 0 mm | 14.31 m/s, 8° | - | - |
| 1788565348 | 26.67° C | 51% | 1015.2 hPa | 0 mm | 16.09 m/s, 338° | - | - |
| 1788565047 | 26.67° C | 51% | 1015.2 hPa | 0 mm | 16.09 m/s, 338° | - | - |
| 1788564747 | 26.67° C | 51% | 1015.2 hPa | 0 mm | 16.09 m/s, 338° | - | - |
* Rain latest hour (hover to see other rain measurements)
** Current wind speed in m/s (hover to see current wind gust speed)